This is the latest recevied weather packets stored in our database for station/object DG2MCM-11. If no packets are shown the sender has not sent any weather packets the latest 10 day(s).
| Time | Temp. | Humidity | Pressure | Rain* | Wind** | Luminosity | Snow |
|---|---|---|---|---|---|---|---|
| 1777527479 | 3.33° C | 55% | 1026.9 hPa | 0 mm | - | - | - |
| 1777526276 | 2.78° C | 59% | 1027 hPa | 0 mm | - | - | - |
| 1777525674 | 2.78° C | 62% | 1027 hPa | 0 mm | - | - | - |
| 1777525073 | 2.78° C | 62% | 1027 hPa | 0 mm | - | - | - |
| 1777524471 | 2.22° C | 64% | 1027.1 hPa | 0 mm | - | - | - |
| 1777521524 | 2.78° C | 61% | 1026.5 hPa | 0 mm | - | - | - |
| 1777520923 | 2.78° C | 62% | 1026.5 hPa | 0 mm | - | - | - |
| 1777520321 | 2.78° C | 63% | 1026.6 hPa | 0 mm | - | - | - |
| 1777519719 | 2.22° C | 64% | 1026.6 hPa | 0 mm | - | - | - |
| 1777519118 | 2.78° C | 62% | 1026.5 hPa | 0 mm | - | - | - |
| 1777516703 | 3.33° C | 60% | 1026.4 hPa | 0 mm | - | - | - |
| 1777515500 | 3.89° C | 60% | 1026.3 hPa | 0 mm | - | - | - |
| 1777514898 | 3.89° C | 60% | 1026.2 hPa | 0 mm | - | - | - |
| 1777513695 | 4.44° C | 54% | 1025.9 hPa | 0 mm | - | - | - |
| 1777512492 | 4.44° C | 54% | 1025.7 hPa | 0 mm | - | - | - |
| 1777511890 | 4.44° C | 54% | 1025.7 hPa | 0 mm | - | - | - |
| 1777511289 | 5° C | 53% | 1025.6 hPa | 0 mm | - | - | - |
| 1777510687 | 5.56° C | 52% | 1025.4 hPa | 0 mm | - | - | - |
| 1777508883 | 5.56° C | 50% | 1025 hPa | 0 mm | - | - | - |
| 1777507079 | 6.11° C | 49% | 1025 hPa | 0 mm | - | - | - |
| 1777505876 | 6.11° C | 50% | 1024.8 hPa | 0 mm | - | - | - |
| 1777504072 | 6.11° C | 50% | 1024.6 hPa | 0 mm | - | - | - |
| 1777503470 | 6.67° C | 50% | 1024.8 hPa | 0 mm | - | - | - |
| 1777502869 | 6.67° C | 50% | 1024.7 hPa | 0 mm | - | - | - |
| 1777502267 | 6.11° C | 52% | 1024.7 hPa | 0 mm | - | - | - |
* Rain latest hour (hover to see other rain measurements)
** Current wind speed in m/s (hover to see current wind gust speed)